Theta_e
335 343 348 351 350 349 348 348 346 346 343 343 341 343 344 343 341 341 343 343 341 342 340 340 338 338 339 339 337 336 335 335 335 337 337 337 337 338 338 338 337 332 338
339 343 347 350 351 349 348 347 345 345 342 343 342 342 344 343 341 340 341 340 340 340 339 339 337 338 338 338 338 338 335 335 336 336 335 337 337 334 335 336 337 335 338
340 343 347 348 350 349 348 346 342 344 341 342 342 342 345 342 340 339 339 340 338 337 337 336 337 338 337 337 336 337 337 335 335 335 334 329 331 334 333 333 334 336 337
341 342 345 346 349 348 346 345 343 341 342 340 341 341 342 341 339 338 337 337 337 337 336 336 337 337 336 336 336 337 337 334 334 333 326 328 329 334 333 333 335 336 335
338 341 342 345 348 347 345 344 342 341 341 341 340 342 341 342 340 338 337 337 336 337 336 336 335 335 336 336 336 336 334 333 331 326 327 327 326 331 336 335 335 335 335
337 340 342 346 347 346 345 344 342 341 341 341 340 342 341 342 340 338 337 336 336 335 335 335 335 334 335 334 335 335 333 332 328 321 322 326 329 336 337 336 335 335 335
336 339 342 344 345 345 345 344 343 342 341 340 340 339 343 342 340 338 336 336 335 335 335 334 334 334 333 333 333 333 332 331 320 320 321 326 329 334 336 335 335 334 334
336 339 341 338 340 343 343 343 342 341 341 340 339 338 342 342 340 337 336 335 335 334 334 334 334 333 332 331 331 330 330 328 323 321 323 325 335 334 333 335 335 334 334
337 337 337 339 338 336 339 339 340 340 339 338 337 338 336 338 339 338 337 335 334 334 333 333 333 332 331 329 328 328 327 326 319 321 325 324 334 333 333 333 333 333 333
334 335 334 336 337 338 337 333 334 336 336 336 334 332 330 331 333 333 332 335 334 333 333 332 332 331 330 327 327 326 325 323 320 321 321 324 332 332 332 331 332 331 332
331 332 333 333 334 334 335 331 330 331 331 331 329 327 325 326 327 328 328 333 336 334 332 332 331 331 330 327 326 324 323 317 317 318 318 327 330 330 331 330 328 331 332
325 328 332 332 333 334 336 331 330 330 329 328 326 325 325 324 325 327 325 328 332 331 333 332 331 330 324 318 317 319 316 316 315 316 316 327 327 328 330 329 330 331 331
322 326 331 332 333 334 335 332 330 329 327 326 325 324 323 322 320 322 321 322 321 321 322 325 325 322 319 318 318 318 317 317 316 316 318 324 327 326 328 330 329 330 330
320 321 330 331 333 334 334 333 331 329 327 325 324 324 322 319 318 319 319 319 318 319 317 317 316 316 317 318 319 318 317 316 316 317 316 321 326 326 326 329 329 330 330
320 320 321 328 332 333 331 332 331 329 328 328 326 325 324 320 318 319 318 317 317 317 316 316 316 317 317 317 318 317 317 316 316 316 316 316 321 326 327 327 330 330 330
323 320 320 324 327 330 329 329 329 329 328 327 328 327 325 323 321 319 318 317 316 317 316 316 316 316 316 316 316 316 315 315 314 314 315 315 320 324 327 328 329 330 330
326 324 319 320 324 327 328 327 328 328 327 326 327 327 326 325 322 321 319 318 318 317 317 315 315 314 313 314 313 314 314 314 314 314 314 314 316 319 323 327 329 329 330
326 323 322 323 322 324 327 326 327 326 326 326 325 326 326 325 324 321 321 320 319 316 315 313 312 313 313 312 312 312 312 313 314 314 315 315 315 316 319 325 328 329 329
326 322 321 321 321 321 322 325 324 324 321 324 324 324 324 325 324 323 322 321 319 317 315 314 313 313 312 313 313 313 312 311 313 315 314 315 316 316 316 319 321 323 328
326 322 319 320 321 320 321 321 321 319 319 319 322 323 323 325 325 323 320 319 318 317 316 315 313 313 313 313 314 313 312 312 313 313 314 316 316 316 315 316 316 316 319
324 321 317 317 320 319 318 317 319 320 320 318 319 322 322 324 324 322 321 318 318 317 317 315 313 313 313 312 311 311 312 314 314 315 314 315 315 316 315 315 315 315 316
323 324 320 318 319 319 320 320 320 320 320 321 320 319 320 322 323 323 322 320 319 318 315 315 314 312 312 313 310 308 307 309 310 313 314 315 315 315 315 315 315 315 315
319 323 324 320 319 320 321 320 318 318 316 317 319 319 319 320 320 322 322 322 321 319 318 316 315 314 313 311 313 310 304 304 307 311 312 313 314 313 313 313 314 315 317
316 321 325 325 321 321 321 320 319 318 316 318 319 320 320 320 319 320 321 321 321 320 320 319 317 316 315 312 310 314 312 310 307 305 311 311 312 312 312 312 315 315 316
314 318 322 325 323 321 321 321 320 319 319 320 319 319 319 320 319 319 320 321 320 320 320 320 318 316 317 315 313 310 313 313 311 308 306 308 310 312 313 316 315 312 310
307 316 320 323 324 323 320 321 320 319 319 318 317 317 319 320 319 319 319 320 320 320 320 320 320 319 318 317 317 315 313 310 312 312 310 306 308 310 315 315 314 310 305
Wind_Speed
3 5 8 11 13 14 16 17 15 14 15 15 14 14 16 16 16 15 14 15 16 14 16 17 18 18 18 19 19 19 18 18 17 17 17 17 17 18 18 16 12 7 15
7 6 9 10 14 15 16 14 13 13 13 14 14 12 11 17 16 15 14 13 16 15 17 16 16 16 16 15 15 15 16 16 15 15 15 12 15 15 15 15 16 12 14
7 6 7 11 13 15 14 13 12 12 12 13 12 11 16 17 15 14 17 13 16 15 15 16 15 15 14 14 13 10 14 15 13 12 8 5 7 14 14 13 13 14 15
8 6 6 11 13 14 14 12 11 12 9 11 10 10 13 14 14 14 15 13 14 15 15 14 14 13 13 12 12 13 17 13 9 8 7 6 7 13 12 12 13 13 12
8 6 7 10 13 14 14 13 11 10 10 10 9 11 11 13 14 14 13 13 13 13 14 13 12 11 12 11 13 13 14 11 7 8 6 5 4 7 10 10 10 10 11
9 9 10 10 12 13 13 13 12 10 10 8 7 8 13 12 15 13 12 13 12 12 12 12 10 10 10 10 13 12 9 10 7 6 6 7 6 11 12 9 9 9 8
8 8 10 12 11 12 12 12 11 11 9 9 6 9 14 14 16 13 12 11 12 11 11 10 9 8 7 8 9 9 8 6 5 5 5 5 5 10 11 10 9 8 8
9 8 8 12 12 10 12 11 11 11 9 8 4 4 13 12 15 13 12 11 10 10 10 9 8 7 6 6 7 7 9 7 4 5 4 4 9 9 9 9 9 7 8
8 7 7 5 10 11 9 9 9 11 10 8 5 3 7 10 10 14 12 10 10 9 9 8 7 6 4 4 5 5 7 6 4 2 2 3 8 8 8 8 7 6 7
7 8 6 8 5 7 8 10 9 9 10 10 8 6 6 8 8 8 10 11 9 9 9 8 6 5 3 1 2 3 6 6 4 3 1 1 4 6 7 6 5 3 7
6 8 7 6 8 5 7 7 9 9 9 9 7 7 6 4 5 6 6 9 8 8 8 7 6 5 2 1 4 6 7 2 2 2 1 3 2 3 5 4 4 2 7
7 6 8 8 6 9 7 7 5 4 4 5 5 6 4 4 4 4 5 7 7 7 6 6 6 4 2 1 2 4 2 3 1 3 2 4 2 0 2 3 4 4 6
8 7 9 10 9 9 7 6 4 3 3 3 6 5 4 3 3 3 2 2 3 5 2 3 3 2 3 3 4 3 3 3 2 2 4 7 4 2 1 1 0 3 5
7 8 10 10 11 11 6 7 7 5 4 4 4 6 4 3 4 4 3 4 4 3 4 3 2 3 5 5 5 4 4 4 2 2 4 8 7 5 4 3 4 4 7
8 8 8 10 11 11 9 8 8 7 6 6 6 6 5 4 5 4 4 4 4 3 4 4 4 4 5 5 5 5 5 5 4 3 2 7 8 7 7 6 7 6 7
9 10 7 9 9 10 9 9 8 9 9 7 6 7 8 6 6 5 5 5 4 4 4 4 4 4 5 4 5 5 6 5 5 5 3 3 9 10 9 8 9 7 8
14 11 11 9 8 9 10 8 7 7 8 8 8 9 9 8 8 7 5 5 6 5 6 4 4 3 3 4 6 5 5 6 5 6 5 4 5 9 11 11 10 9 10
12 15 13 12 11 11 9 7 7 7 6 7 7 8 11 10 10 7 6 6 6 4 4 4 4 4 4 4 4 5 4 4 6 6 5 4 4 4 7 11 11 11 10
15 14 16 16 16 13 9 7 7 7 6 6 6 7 9 10 10 8 7 6 6 5 5 4 4 4 4 4 4 4 5 5 6 5 7 6 6 5 4 7 11 10 10
13 13 13 13 16 15 10 6 4 4 5 5 8 8 9 9 11 9 6 7 6 5 5 4 5 4 4 4 4 4 5 5 5 5 6 5 6 6 6 6 5 5 11
9 11 15 15 17 11 10 9 8 10 7 6 8 10 10 10 11 11 8 7 7 8 9 8 5 6 5 3 0 3 4 7 7 6 5 5 6 6 6 5 4 4 4
16 17 15 17 16 14 11 11 10 8 8 8 6 7 11 13 12 12 11 10 10 8 7 9 8 4 4 5 4 1 3 4 3 6 4 5 7 4 5 6 5 6 5
14 16 17 18 18 17 17 8 4 3 3 4 8 10 12 14 13 13 14 12 11 10 10 10 10 11 8 4 6 4 2 5 1 2 2 4 6 4 5 4 6 6 6
13 15 18 17 18 17 16 12 15 15 14 14 11 10 11 14 14 14 15 14 13 10 12 10 9 9 8 8 3 8 4 3 4 3 2 2 4 5 6 4 5 4 3
12 14 16 17 17 17 17 18 14 15 13 11 10 12 14 13 15 15 15 14 13 10 12 12 10 12 9 9 7 3 8 6 4 3 4 4 3 4 4 4 2 2 2
9 11 13 16 18 19 18 21 20 20 17 12 13 12 11 10 10 15 16 15 14 13 13 12 13 14 13 11 9 9 6 5 8 7 7 3 5 5 3 2 3 3 2
Wind_Direction
177 157 147 133 134 125 114 110 109 104 103 108 105 102 101 101 93 91 89 86 95 88 89 88 90 89 88 84 79 80 83 76 73 62 64 67 59 59 58 60 54 44 62
140 148 146 134 128 123 116 115 110 102 113 116 112 110 116 105 99 102 98 96 97 95 92 90 96 94 93 88 84 86 85 76 72 62 47 54 68 58 59 49 50 56 54
130 139 136 135 124 120 116 111 113 114 117 120 116 116 110 108 106 104 99 96 96 103 99 99 99 101 97 85 71 63 99 91 84 77 53 35 71 70 59 51 54 48 47
132 132 135 139 131 129 122 121 115 116 116 122 117 111 110 112 111 111 105 105 106 105 103 105 105 106 99 83 62 61 104 97 94 100 76 60 64 70 65 62 46 45 44
128 125 136 138 138 134 129 124 124 121 125 129 123 121 116 117 114 114 112 109 110 111 110 108 108 109 98 80 63 90 97 89 69 53 53 32 15 59 54 55 49 43 34
135 134 142 144 144 137 135 134 133 133 132 139 141 135 116 132 120 117 115 114 115 114 113 112 111 105 92 79 75 77 84 95 77 68 58 23 9 51 57 63 48 51 40
136 140 146 148 148 145 143 140 137 137 143 142 156 141 121 129 122 120 120 119 117 119 120 120 114 103 91 76 70 67 56 46 77 72 61 32 353 41 49 48 45 57 62
144 143 149 151 148 150 149 147 146 140 133 142 133 93 132 128 128 123 125 127 127 127 127 124 119 111 90 73 60 48 44 40 99 87 65 35 0 57 43 37 53 68 77
144 145 140 157 156 154 152 150 147 140 133 132 142 102 136 117 125 129 132 133 138 137 135 132 132 121 102 62 52 37 35 47 123 98 75 42 359 36 48 37 57 76 88
151 151 162 150 167 157 158 152 154 154 149 151 141 118 85 98 108 112 135 142 149 149 146 147 146 144 135 87 16 8 22 48 116 117 121 82 32 27 49 38 51 74 101
162 163 159 173 157 164 156 165 163 161 160 155 153 147 133 133 127 129 145 140 153 156 161 161 167 162 165 307 325 347 351 51 146 205 183 164 84 30 46 27 24 126 116
182 181 174 164 180 163 170 154 155 153 164 163 166 170 166 169 163 160 167 156 160 168 172 176 182 185 174 287 306 334 317 302 210 219 228 212 180 54 39 19 49 144 133
188 184 185 178 172 178 173 167 162 165 172 179 174 181 181 165 175 168 169 169 179 184 188 185 202 196 211 228 262 254 269 266 245 242 224 224 221 225 237 69 159 158 162
196 194 191 188 183 182 172 177 170 177 182 183 198 186 173 178 187 182 186 194 200 199 205 203 216 220 228 239 236 247 236 237 228 243 238 227 235 242 240 242 224 212 200
219 208 199 191 190 185 172 176 171 181 193 198 190 195 187 181 185 182 196 198 206 202 211 212 217 227 238 238 232 229 241 253 253 234 233 235 236 245 249 244 246 224 216
209 223 198 209 202 187 183 178 183 184 189 192 201 198 193 187 188 195 194 205 213 199 208 213 210 215 229 236 252 249 251 254 252 249 236 241 232 238 243 247 250 248 237
207 207 214 197 210 206 199 188 186 198 192 196 200 203 191 192 194 194 196 205 214 206 207 213 230 222 236 242 246 246 247 249 251 250 238 232 241 236 239 241 244 245 250
206 202 204 205 202 210 210 202 197 195 199 207 199 199 201 198 195 197 199 208 208 200 195 195 200 215 227 230 245 254 254 253 253 248 244 232 232 239 240 238 239 240 244
209 206 204 201 202 201 206 206 206 199 199 202 204 203 198 200 201 202 208 212 195 197 200 195 208 192 209 237 238 251 258 257 253 250 240 237 231 231 237 243 235 235 237
208 207 210 204 206 201 197 203 202 198 202 196 208 207 200 204 203 202 203 203 197 197 208 195 204 207 207 220 239 247 250 249 244 237 243 236 235 233 231 233 237 233 231
208 199 202 202 210 193 196 197 212 218 215 215 212 211 201 206 206 207 213 205 201 208 210 202 189 204 228 205 236 284 266 243 242 236 226 233 237 241 239 227 225 223 231
207 206 204 209 201 206 207 206 203 206 225 223 218 213 208 210 208 205 207 212 210 213 206 202 195 194 214 179 185 115 291 312 278 243 221 224 233 232 247 236 234 232 221
218 211 207 207 204 202 210 200 172 147 182 214 219 215 216 211 210 211 211 211 212 210 216 211 202 203 222 202 200 167 208 234 298 303 258 223 226 218 242 237 237 232 224
220 219 215 212 206 205 199 196 204 208 207 221 230 229 219 218 216 213 217 215 215 208 218 213 205 205 207 216 198 229 238 165 188 309 321 298 232 238 242 244 235 252 216
232 217 211 211 206 205 200 203 207 219 226 218 210 219 218 215 217 216 215 218 221 218 217 209 204 210 206 218 207 168 224 232 230 191 249 263 328 258 253 241 238 214 145
242 224 217 211 206 201 201 206 206 214 221 219 217 214 216 216 213 221 219 216 215 217 219 212 211 213 214 216 213 212 193 178 210 213 232 193 219 261 239 198 171 156 126